Location: *
(37.5724°S, 58.0067°E)
Time: 21:24:11
(UTC+00:00)

Cosmos 1943 Rocket - Pass Details

Date: 20 January 2021
Orbit: 810 x 845 km, 71.0° (Epoch: 25 February)

Event Time Altitude Azimuth Distance (km) Brightness Sun altitude
Rises 16:24:22 0° 213° (SSW) 3,370 6.8 -10.3°
Reaches altitude 10° 16:27:00 10° 221° (SW) 2,428 6.0 -10.7°
Maximum altitude 16:31:55 33° 284° (WNW) 1,343 3.7 -11.5°
Drops below altitude 10° 16:36:46 10° 346° (NNW) 2,396 4.3 -12.3°
Sets 16:39:22 0° 355° (N) 3,320 5.0 -12.7°
